Hyannis, MA

9:29 PM EDT on April 28, 2017 (GMT -0400)
Barnstable Municipal-Boardman-Polando Field

Weather History for KHYA - August, 2012

Change the Weather History Date:

Monday, August 6, 2012

  Actual Average Record
Temperature  
Mean Temperature 75 °F -  
Max Temperature 86 °F 78 °F 89 °F (1931)
Min Temperature 64 °F 61 °F 44 °F (1953)
Cooling Degree Days 10    
Growing Degree Days 25 (Base 50)    
Moisture  
Dew Point 69 °F    
Average Humidity 81    
Maximum Humidity 97    
Minimum Humidity 43    
Precipitation  
Precipitation 0.22 in - - ()
Sea Level Pressure  
Sea Level Pressure 29.95 in    
Wind  
Wind Speed 12 mph (WSW)    
Max Wind Speed 21 mph    
Max Gust Speed 29 mph    
Visibility 9 miles    
Events Rain    
Averages and records for this station are not official NWS values.
T = Trace of Precipitation, MM = Missing Value Source: NWS Daily Summary

Daily Weather History Graph

Daily Weather History Graph

Search for Another Location

Airport or City:

Trip Planner

Search our weather history database for the weather conditions in past years. The results will help you decide how hot, cold, wet, or windy it might be!

Date:

Astronomy

Aug. 06, 2012 Rise Set
Actual Time 5:40 AM EDT 7:52 PM EDT
Civil Twilight 5:10 AM EDT 8:22 PM EDT
Nautical Twilight 4:32 AM EDT 9:00 PM EDT
Astronomical Twilight 3:50 AM EDT 9:42 PM EDT
Moon 9:53 PM EDT (8/6) 10:31 AM EDT (8/6)
Length of Visible Light 15h 12m
Length of Day
14h 11m
Waning Gibbous, 78% of the Moon is Illuminated
Aug 6
Waning Gibbous
Aug 9
Last Quarter
Aug 17
New
Aug 24
First Quarter
Aug 31
Full

Hourly Weather History & Observations

Time (EDT) Temp. Heat Index Dew Point Humidity Pressure Visibility Wind Dir Wind Speed Gust Speed Precip Events Conditions
12:56 AM 77.0 °F - 73.0 °F 88% 29.96 in 10.0 mi WSW 19.6 mph 28.8 mph N/A   Mostly Cloudy
1:08 AM 77.0 °F - 73.4 °F 89% 29.95 in 10.0 mi SW 18.4 mph 23.0 mph N/A   Scattered Clouds
1:56 AM 75.9 °F - 71.1 °F 85% 29.96 in 10.0 mi WSW 20.7 mph 28.8 mph N/A   Mostly Cloudy
2:56 AM 75.0 °F - 71.1 °F 87% 29.96 in 10.0 mi SW 17.3 mph 24.2 mph N/A   Mostly Cloudy
3:56 AM 75.0 °F - 71.1 °F 87% 29.96 in 10.0 mi WSW 16.1 mph 25.3 mph 0.00 in Rain Light Rain
4:20 AM 73.4 °F - 71.6 °F 94% 29.96 in 9.0 mi WSW 13.8 mph 21.9 mph 0.01 in Rain Light Rain
4:27 AM 73.4 °F - 71.6 °F 94% 29.96 in 2.5 mi WSW 11.5 mph - 0.09 in Rain Heavy Rain
4:36 AM 73.4 °F - 71.6 °F 94% 29.95 in 1.8 mi WSW 10.4 mph - 0.21 in Rain Rain
4:40 AM 73.4 °F - 71.6 °F 94% 29.95 in 3.0 mi WSW 12.7 mph - 0.21 in Rain Light Rain
4:56 AM 73.0 °F - 72.0 °F 96% 29.96 in 10.0 mi SW 10.4 mph - 0.21 in Rain Light Rain
5:11 AM 73.4 °F - 71.6 °F 94% 29.95 in 10.0 mi SW 12.7 mph - 0.00 in   Overcast
5:56 AM 73.0 °F - 72.0 °F 96% 29.95 in 10.0 mi SW 10.4 mph - 0.00 in   Overcast
6:56 AM 73.0 °F - 72.0 °F 96% 29.96 in 8.0 mi WSW 8.1 mph - 0.01 in Rain Light Rain
7:56 AM 73.9 °F - 73.0 °F 97% 29.97 in 9.0 mi SW 6.9 mph - 0.00 in Rain Light Rain
8:56 AM 75.0 °F - 73.0 °F 94% 29.96 in 10.0 mi SW 8.1 mph - 0.00 in   Partly Cloudy
9:56 AM 78.1 °F - 73.0 °F 84% 29.96 in 10.0 mi West 6.9 mph - N/A   Partly Cloudy
10:56 AM 81.0 °F 85.2 °F 72.0 °F 74% 29.96 in 10.0 mi West 5.8 mph - N/A   Mostly Cloudy
11:56 AM 81.0 °F 84.4 °F 70.0 °F 69% 29.95 in 10.0 mi Variable 3.5 mph - N/A   Mostly Cloudy
12:56 PM 79.0 °F - 73.0 °F 82% 29.94 in 10.0 mi East 6.9 mph - N/A   Overcast
1:56 PM 82.9 °F 87.0 °F 70.0 °F 65% 29.93 in 10.0 mi Calm Calm - N/A   Partly Cloudy
2:56 PM 84.9 °F 85.9 °F 63.0 °F 48% 29.91 in 10.0 mi WNW 8.1 mph - N/A   Scattered Clouds
3:56 PM 86.0 °F 86.1 °F 61.0 °F 43% 29.90 in 10.0 mi West 8.1 mph - N/A   Clear
4:56 PM 82.9 °F 84.6 °F 64.9 °F 54% 29.90 in 10.0 mi West 12.7 mph - N/A   Clear
5:56 PM 80.1 °F 81.5 °F 63.0 °F 56% 29.91 in 10.0 mi NE 8.1 mph - N/A   Clear
6:56 PM 79.0 °F - 62.1 °F 56% 29.91 in 10.0 mi NNE 4.6 mph - N/A   Clear
7:56 PM 72.0 °F - 62.1 °F 71% 29.94 in 10.0 mi Calm Calm - N/A   Clear
8:56 PM 66.9 °F - 62.1 °F 84% 29.95 in 10.0 mi Calm Calm - N/A   Clear
9:56 PM 66.0 °F - 62.1 °F 87% 29.96 in 10.0 mi Calm Calm - N/A   Clear
10:56 PM 64.0 °F - 62.1 °F 93% 29.96 in 10.0 mi Calm Calm - N/A   Mostly Cloudy
11:56 PM 66.0 °F - 62.1 °F 87% 29.96 in 10.0 mi Calm Calm - N/A   Mostly Cloudy